Location: Borojevi?i
(45.0486°N, 16.2297°E)
Time: 15:05:36
(UTC+00:00)

MOS 1-B Rocket - Pass Details

Date: 08 August 2020
Orbit: 890 x 1606 km, 99.1° (Epoch: 18 September)

Event Time Altitude Azimuth Distance (km) Brightness Sun altitude
Rises 20:46:50 0° 21° (NNE) 3,586 7.4 -22.0°
Reaches altitude 10° 20:49:31 10° 31° (NNE) 2,597 6.5 -22.2°
Maximum altitude 20:54:40 35° 97° (E) 1,393 4.5 -22.8°
Enters shadow 20:54:44 35° 98° (E) 1,393 4.5 -22.8°
